Miscellaneous Local Product
Issued by NWS North Platte, NE

Home | Current Version | Previous Version | Text Only | Print | Product List | Glossary On
Versions: 1 2 3 4 5 6 7 8 9 10 11 12 13 14 15 16 17 18 19 20 21 22 23 24 25 26 27 28 29 30 31 32 33 34 35 36 37 38 39 40 41 42 43 44 45 46 47 48 49 50
000
AXUS43 KLBF 220210
MISLBF


WESTERN AND NORTH CENTRAL NEBRASKA HOURLY WEATHER ROUNDUP
NATIONAL WEATHER SERVICE NORTH PLATTE NE
800 PM CST TUE FEB 21 2017

NOTE: "FAIR" INDICATES FEW OR NO CLOUDS BELOW 12,000 FEET WITH NO
SIGNIFICANT WEATHER AND/OR OBSTRUCTIONS TO VISIBILITY.

NOTE: STATIONS NOT REPORTING VARIABLES SUCH AS SKY/WEATHER OR
PRESSURE ARE PROVIDED BY RAWS AND APRS NETWORKS AND ARE NOT UNDER
NATIONAL WEATHER SERVICE QUALITY CONTROL.

...OBSERVATIONS IN AND NEAR THE EASTERN PANHANDLE OF NEBRASKA...

CITY           SKY/WX    TMP DP  RH WIND       PRES   REMARKS
PINE RIDGE     CLEAR     57  28  33 W10       29.74S
CHADRON        CLEAR     55  26  32 SW12      29.74S
ALLIANCE       CLEAR     49  21  33 SW10      29.80F
SIDNEY         CLEAR     57  17  21 W17       29.86F
CRESCENT LAKE    N/A     59  20  22 W7          N/A
$$

...OBSERVATIONS IN NORTHERN NEBRASKA AND FAR SOUTHERN SOUTH DAKOTA...

CITY           SKY/WX    TMP DP  RH WIND       PRES   REMARKS
WINNER         FAIR      59  33  37 SW8       29.66F
VALENTINE      CLEAR     53  30  41 SW12      29.72S
THEDFORD       CLEAR     56  28  34 CALM      29.79S
AINSWORTH      PTCLDY    53  35  50 SW7       29.74S
O`NEILL        PTCLDY    57  35  43 SW8       29.72F
ORD            CLEAR     50  32  50 SW10      29.75S
BROKEN BOW     CLEAR     51  30  44 CALM      29.78S
VALENTINE NWR    N/A     58  28  32 W7          N/A
BUTTE            N/A     62  35  37 S8          N/A
HALSEY           N/A     64  23  21 W5          N/A
CHAMBERS         N/A     51  30  44 CALM        N/A
EWING            N/A     57  37  47 CALM        N/A
$$

...OBSERVATIONS IN SOUTHWEST NEBRASKA AND FAR NORTHEAST COLORADO...

CITY           SKY/WX    TMP DP  RH WIND       PRES   REMARKS
HOLYOKE        FAIR      48  16  27 SW7       29.88S
IMPERIAL       CLEAR     54  19  25 CALM      29.85S
OGALLALA       CLEAR     54  21  27 CALM      29.84S
NORTH PLATTE   CLEAR     53  26  35 CALM      29.81S
MCCOOK         CLEAR     57  25  29 SW8       29.83S
LEXINGTON      CLEAR     59  27  29 SW8       29.81F
STAPLETON        N/A     56  27  33 CALM        N/A
GOTHENBURG       N/A     62  24  23 CALM        N/A
CALLAWAY         N/A     49  27  42 W3          N/A
$$

...OBSERVATIONS IN CENTRAL LINCOLN COUNTY AREA...

CITY           SKY/WX    TMP DP  RH WIND       PRES   REMARKS
N.P. AIRPORT   CLEAR     53  26  35 CALM      29.81S
N.P. DOWNTOWN    N/A     59  28  30 CALM        N/A
N.P. SOUTHEAST   N/A     60  26  27 CALM        N/A
N.P. HILLCREST   N/A     64  27  24 CALM        N/A
$$

...SOME OBSERVATIONS FROM AROUND THE REGION...

CITY           SKY/WX    TMP DP  RH WIND       PRES   REMARKS
LARAMIE        CLEAR     39  21  48 SW16      29.93F WCI  30
CHEYENNE       CLEAR     49  15  25 W7        29.94F
DENVER         CLOUDY    61   1   9 SW15      29.96F
AKRON          CLOUDY    55  15  20 W14       29.91F
SCOTTSBLUFF    CLEAR     63  19  18 W22G30    29.82F
RAPID CITY     CLEAR     54  34  46 NW21      29.71R
BISMARCK       CLOUDY    43  36  76 NE8       29.69R
PIERRE         CLEAR     51  36  56 E7        29.60S
SIOUX FALLS    CLEAR     45  38  76 CALM      29.69F
OMAHA          CLEAR     58  38  47 S13       29.79F
GRAND ISLAND   CLEAR     56  36  47 S10       29.79F
KANSAS CITY    CLEAR     59  30  33 SE5       29.88F
WICHITA        CLEAR     52  39  61 S7        29.91F
OKLAHOMA CITY  CLEAR     58  37  45 NW5       29.95S
DALLAS         PTCLDY    68  43  40 NW9       29.92R
AMARILLO       CLEAR     60  26  27 S9        30.03S
DODGE CITY     CLEAR     54  23  30 S8        29.92F
HAYS             N/A     57  25  29 S9        29.88S
GOODLAND       CLEAR     63  19  18 S13       29.90S
$$




USA.gov is the U.S. government's official web portal to all federal, state and local government web resources and services.